QPF
0.00 0.00 0.00 0.00 0.00 0.00 0.00 0.00 0.00 0.00 0.00 0.00 0.00 0.00 0.00 0.00 0.00 0.00 0.00 0.00 0.00 0.00 0.00 0.00 0.00 0.00 0.00 0.00 0.01 0.01 0.01 0.01 0.01 0.02 0.02 0.03 0.04 0.05
0.00 0.00 0.00 0.00 0.00 0.00 0.00 0.00 0.00 0.00 0.00 0.00 0.00 0.00 0.00 0.00 0.00 0.00 0.00 0.00 0.00 0.00 0.00 0.00 0.00 0.00 0.00 0.00 0.01 0.01 0.01 0.01 0.01 0.01 0.02 0.03 0.03 0.04
0.00 0.00 0.00 0.00 0.00 0.00 0.00 0.00 0.00 0.00 0.00 0.00 0.00 0.00 0.00 0.00 0.00 0.00 0.00 0.00 0.00 0.00 0.00 0.00 0.00 0.00 0.00 0.00 0.00 0.00 0.01 0.01 0.01 0.01 0.01 0.02 0.02 0.03
0.00 0.00 0.00 0.00 0.00 0.00 0.00 0.01 0.00 0.00 0.00 0.00 0.00 0.01 0.01 0.01 0.01 0.01 0.00 0.00 0.00 0.00 0.00 0.00 0.00 0.00 0.00 0.00 0.00 0.00 0.00 0.00 0.01 0.01 0.01 0.02 0.02 0.02
0.00 0.00 0.00 0.00 0.00 0.00 0.01 0.01 0.01 0.00 0.00 0.01 0.01 0.01 0.01 0.01 0.01 0.01 0.00 0.00 0.00 0.00 0.00 0.00 0.00 0.00 0.00 0.00 0.00 0.00 0.00 0.00 0.01 0.01 0.01 0.01 0.01 0.02
0.00 0.00 0.00 0.00 0.01 0.01 0.01 0.01 0.01 0.01 0.01 0.01 0.01 0.01 0.02 0.01 0.00 0.00 0.00 0.00 0.00 0.00 0.00 0.00 0.00 0.00 0.00 0.00 0.00 0.00 0.00 0.00 0.01 0.01 0.01 0.01 0.01 0.01
0.00 0.00 0.00 0.00 0.00 0.00 0.00 0.00 0.00 0.01 0.01 0.01 0.01 0.02 0.01 0.00 0.00 0.00 0.00 0.00 0.00 0.00 0.00 0.00 0.00 0.00 0.00 0.00 0.00 0.00 0.00 0.00 0.01 0.01 0.01 0.01 0.01 0.01
0.00 0.00 0.00 0.00 0.00 0.00 0.00 0.00 0.00 0.00 0.01 0.01 0.02 0.01 0.00 0.00 0.00 0.00 0.00 0.00 0.00 0.00 0.00 0.00 0.00 0.00 0.00 0.00 0.00 0.00 0.00 0.00 0.00 0.01 0.01 0.01 0.01 0.01
0.00 0.00 0.01 0.01 0.01 0.00 0.00 0.00 0.00 0.01 0.01 0.01 0.00 0.00 0.00 0.00 0.00 0.00 0.00 0.00 0.00 0.00 0.00 0.00 0.00 0.00 0.00 0.00 0.00 0.00 0.00 0.00 0.00 0.01 0.01 0.01 0.01 0.01
0.00 0.00 0.00 0.00 0.00 0.01 0.01 0.01 0.01 0.01 0.01 0.01 0.01 0.00 0.00 0.00 0.00 0.00 0.00 0.00 0.00 0.00 0.00 0.00 0.00 0.00 0.00 0.00 0.00 0.00 0.00 0.00 0.00 0.00 0.01 0.01 0.01 0.01
0.01 0.01 0.01 0.00 0.01 0.01 0.01 0.01 0.01 0.01 0.01 0.01 0.01 0.01 0.00 0.00 0.00 0.00 0.01 0.01 0.00 0.00 0.00 0.00 0.00 0.00 0.00 0.00 0.00 0.00 0.00 0.00 0.00 0.00 0.00 0.00 0.01 0.00
0.01 0.01 0.01 0.01 0.01 0.01 0.01 0.00 0.01 0.00 0.00 0.01 0.01 0.01 0.00 0.01 0.01 0.01 0.01 0.01 0.01 0.01 0.00 0.00 0.00 0.00 0.00 0.00 0.00 0.00 0.00 0.00 0.00 0.00 0.00 0.00 0.01 0.00
0.01 0.01 0.01 0.01 0.01 0.01 0.01 0.01 0.01 0.01 0.00 0.01 0.01 0.01 0.01 0.01 0.01 0.01 0.01 0.01 0.01 0.01 0.00 0.01 0.00 0.00 0.01 0.00 0.00 0.00 0.00 0.00 0.00 0.00 0.00 0.01 0.01 0.01
0.02 0.01 0.01 0.02 0.02 0.02 0.02 0.02 0.02 0.01 0.01 0.01 0.01 0.02 0.02 0.02 0.01 0.02 0.02 0.01 0.01 0.01 0.00 0.01 0.01 0.01 0.01 0.01 0.01 0.01 0.00 0.01 0.01 0.00 0.00 0.00 0.01 0.01
0.03 0.03 0.03 0.04 0.03 0.03 0.03 0.03 0.02 0.01 0.01 0.02 0.01 0.01 0.01 0.01 0.01 0.01 0.01 0.01 0.01 0.01 0.01 0.01 0.01 0.01 0.01 0.02 0.02 0.01 0.01 0.01 0.00 0.00 0.00 0.00 0.01 0.01
0.05 0.04 0.04 0.04 0.04 0.04 0.03 0.03 0.02 0.02 0.01 0.01 0.01 0.01 0.02 0.02 0.02 0.02 0.01 0.01 0.01 0.01 0.01 0.01 0.01 0.01 0.02 0.02 0.02 0.01 0.01 0.01 0.00 0.00 0.00 0.00 0.01 0.01
0.06 0.05 0.04 0.04 0.04 0.04 0.03 0.03 0.03 0.03 0.03 0.02 0.02 0.03 0.03 0.02 0.02 0.02 0.01 0.01 0.01 0.01 0.01 0.01 0.01 0.01 0.02 0.02 0.01 0.01 0.01 0.01 0.00 0.00 0.00 0.00 0.00 0.00
0.07 0.06 0.05 0.04 0.03 0.03 0.03 0.04 0.04 0.04 0.03 0.03 0.03 0.03 0.03 0.02 0.02 0.01 0.01 0.01 0.01 0.00 0.00 0.01 0.01 0.01 0.02 0.01 0.01 0.01 0.01 0.00 0.00 0.00 0.00 0.00 0.00 0.00
0.06 0.05 0.05 0.03 0.03 0.03 0.03 0.03 0.03 0.03 0.03 0.03 0.02 0.03 0.02 0.02 0.02 0.01 0.01 0.01 0.01 0.00 0.00 0.01 0.01 0.02 0.02 0.01 0.01 0.01 0.01 0.01 0.00 0.00 0.00 0.00 0.00 0.00
0.05 0.03 0.04 0.03 0.03 0.03 0.03 0.02 0.02 0.03 0.03 0.03 0.03 0.03 0.02 0.02 0.02 0.01 0.01 0.01 0.01 0.01 0.01 0.01 0.01 0.02 0.02 0.02 0.02 0.01 0.01 0.01 0.00 0.00 0.00 0.00 0.00 0.00
0.04 0.03 0.03 0.03 0.03 0.03 0.03 0.03 0.03 0.03 0.03 0.03 0.03 0.03 0.03 0.02 0.02 0.01 0.01 0.01 0.01 0.01 0.01 0.01 0.01 0.02 0.02 0.02 0.02 0.01 0.01 0.01 0.00 0.00 0.00 0.01 0.00 0.00
0.03 0.02 0.02 0.03 0.03 0.04 0.04 0.03 0.03 0.04 0.04 0.04 0.03 0.03 0.02 0.02 0.02 0.01 0.01 0.01 0.01 0.01 0.01 0.01 0.01 0.02 0.02 0.02 0.01 0.01 0.01 0.01 0.01 0.01 0.00 0.01 0.02 0.02
0.03 0.02 0.02 0.03 0.03 0.04 0.04 0.04 0.03 0.04 0.04 0.04 0.03 0.03 0.02 0.02 0.02 0.01 0.01 0.01 0.01 0.01 0.01 0.01 0.02 0.02 0.01 0.01 0.01 0.01 0.01 0.00 0.00 0.01 0.01 0.01 0.00 0.01
MSLP
1011.40 1011.93 1012.47 1012.97 1013.42 1013.78 1014.04 1014.21 1014.29 1014.30 1014.27 1014.23 1014.21 1014.21 1014.26 1014.36 1014.48 1014.63 1014.79 1014.93 1015.06 1015.15 1015.20 1015.20 1015.16 1015.06 1014.92 1014.73 1014.52 1014.27 1014.01 1013.75 1013.48 1013.22 1012.95 1012.69 1012.42 1012.14
1010.22 1010.76 1011.31 1011.86 1012.36 1012.81 1013.18 1013.47 1013.67 1013.81 1013.89 1013.95 1014.00 1014.05 1014.12 1014.22 1014.34 1014.47 1014.61 1014.75 1014.87 1014.96 1015.03 1015.06 1015.04 1014.98 1014.88 1014.74 1014.57 1014.37 1014.15 1013.92 1013.68 1013.43 1013.16 1012.88 1012.59 1012.26
1009.04 1009.57 1010.14 1010.71 1011.27 1011.79 1012.26 1012.67 1013.00 1013.27 1013.47 1013.63 1013.76 1013.88 1013.99 1014.10 1014.21 1014.34 1014.47 1014.59 1014.71 1014.81 1014.89 1014.93 1014.94 1014.91 1014.83 1014.73 1014.59 1014.42 1014.23 1014.02 1013.80 1013.56 1013.31 1013.02 1012.71 1012.37
1007.88 1008.41 1008.98 1009.57 1010.17 1010.76 1011.32 1011.83 1012.28 1012.68 1013.00 1013.27 1013.49 1013.68 1013.83 1013.97 1014.10 1014.23 1014.36 1014.49 1014.61 1014.71 1014.80 1014.85 1014.88 1014.86 1014.80 1014.71 1014.58 1014.43 1014.25 1014.06 1013.85 1013.62 1013.37 1013.10 1012.80 1012.46
1006.78 1007.30 1007.87 1008.47 1009.10 1009.74 1010.37 1010.98 1011.54 1012.04 1012.49 1012.86 1013.18 1013.44 1013.65 1013.84 1014.00 1014.15 1014.30 1014.44 1014.57 1014.69 1014.78 1014.85 1014.88 1014.86 1014.80 1014.70 1014.57 1014.40 1014.22 1014.02 1013.81 1013.59 1013.36 1013.10 1012.82 1012.51
1005.76 1006.27 1006.83 1007.44 1008.08 1008.76 1009.45 1010.13 1010.78 1011.39 1011.94 1012.41 1012.82 1013.17 1013.46 1013.70 1013.92 1014.11 1014.29 1014.46 1014.61 1014.75 1014.85 1014.92 1014.94 1014.92 1014.84 1014.71 1014.55 1014.35 1014.14 1013.92 1013.70 1013.48 1013.26 1013.02 1012.77 1012.49
1004.84 1005.34 1005.89 1006.50 1007.16 1007.86 1008.59 1009.33 1010.05 1010.74 1011.38 1011.95 1012.45 1012.89 1013.26 1013.57 1013.85 1014.10 1014.33 1014.54 1014.72 1014.88 1014.99 1015.06 1015.07 1015.02 1014.90 1014.74 1014.52 1014.28 1014.03 1013.77 1013.53 1013.29 1013.07 1012.85 1012.63 1012.39
1004.02 1004.52 1005.07 1005.68 1006.34 1007.06 1007.82 1008.60 1009.38 1010.14 1010.85 1011.50 1012.09 1012.61 1013.07 1013.46 1013.82 1014.13 1014.41 1014.67 1014.89 1015.06 1015.19 1015.25 1015.24 1015.15 1014.99 1014.77 1014.50 1014.20 1013.89 1013.59 1013.30 1013.04 1012.80 1012.59 1012.38 1012.18
1003.30 1003.81 1004.36 1004.98 1005.65 1006.38 1007.16 1007.97 1008.79 1009.60 1010.38 1011.10 1011.76 1012.36 1012.90 1013.38 1013.80 1014.19 1014.53 1014.83 1015.08 1015.28 1015.41 1015.46 1015.42 1015.30 1015.10 1014.82 1014.49 1014.12 1013.75 1013.38 1013.05 1012.74 1012.48 1012.26 1012.06 1011.87
1002.66 1003.18 1003.75 1004.38 1005.08 1005.83 1006.63 1007.46 1008.31 1009.16 1009.98 1010.76 1011.49 1012.16 1012.76 1013.31 1013.81 1014.25 1014.65 1014.99 1015.27 1015.49 1015.62 1015.67 1015.61 1015.46 1015.21 1014.89 1014.50 1014.07 1013.63 1013.20 1012.81 1012.46 1012.15 1011.90 1011.69 1011.51
1002.07 1002.62 1003.22 1003.89 1004.60 1005.38 1006.21 1007.07 1007.94 1008.82 1009.68 1010.50 1011.27 1012.00 1012.66 1013.26 1013.81 1014.31 1014.75 1015.13 1015.44 1015.67 1015.81 1015.85 1015.79 1015.61 1015.34 1014.97 1014.54 1014.07 1013.57 1013.09 1012.63 1012.22 1011.87 1011.58 1011.34 1011.14
1001.50 1002.10 1002.75 1003.45 1004.21 1005.03 1005.88 1006.76 1007.66 1008.56 1009.45 1010.30 1011.11 1011.86 1012.57 1013.21 1013.80 1014.34 1014.81 1015.22 1015.55 1015.80 1015.95 1016.00 1015.93 1015.76 1015.47 1015.09 1014.63 1014.12 1013.59 1013.05 1012.54 1012.08 1011.67 1011.33 1011.04 1010.82
1000.95 1001.60 1002.30 1003.06 1003.87 1004.73 1005.62 1006.53 1007.45 1008.37 1009.27 1010.13 1010.96 1011.74 1012.47 1013.14 1013.75 1014.31 1014.81 1015.24 1015.59 1015.86 1016.03 1016.09 1016.04 1015.87 1015.60 1015.22 1014.75 1014.23 1013.67 1013.10 1012.55 1012.04 1011.58 1011.18 1010.85 1010.58
1000.40 1001.10 1001.87 1002.69 1003.55 1004.45 1005.38 1006.32 1007.26 1008.20 1009.11 1009.98 1010.82 1011.60 1012.34 1013.02 1013.65 1014.22 1014.73 1015.18 1015.55 1015.83 1016.03 1016.12 1016.09 1015.95 1015.70 1015.34 1014.88 1014.36 1013.79 1013.20 1012.62 1012.07 1011.56 1011.12 1010.74 1010.44
999.87 1000.62 1001.43 1002.31 1003.22 1004.17 1005.13 1006.10 1007.07 1008.01 1008.93 1009.81 1010.64 1011.42 1012.16 1012.84 1013.47 1014.05 1014.57 1015.03 1015.42 1015.73 1015.95 1016.07 1016.07 1015.97 1015.74 1015.41 1014.98 1014.47 1013.90 1013.30 1012.70 1012.11 1011.57 1011.09 1010.68 1010.34
999.35 1000.13 1000.98 1001.89 1002.85 1003.84 1004.84 1005.83 1006.82 1007.77 1008.70 1009.58 1010.41 1011.19 1011.92 1012.60 1013.23 1013.81 1014.33 1014.80 1015.21 1015.54 1015.78 1015.93 1015.97 1015.90 1015.71 1015.40 1014.99 1014.50 1013.93 1013.33 1012.72 1012.11 1011.55 1011.04 1010.60 1010.24
998.84 999.62 1000.49 1001.43 1002.42 1003.43 1004.46 1005.48 1006.49 1007.46 1008.39 1009.28 1010.11 1010.89 1011.62 1012.29 1012.92 1013.50 1014.03 1014.51 1014.93 1015.28 1015.55 1015.72 1015.79 1015.74 1015.58 1015.30 1014.90 1014.42 1013.86 1013.25 1012.62 1012.01 1011.42 1010.90 1010.44 1010.06
998.33 999.09 999.96 1000.90 1001.90 1002.94 1003.99 1005.03 1006.06 1007.05 1008.00 1008.90 1009.74 1010.52 1011.25 1011.93 1012.56 1013.15 1013.69 1014.18 1014.61 1014.98 1015.26 1015.45 1015.54 1015.51 1015.36 1015.09 1014.71 1014.22 1013.66 1013.04 1012.41 1011.78 1011.18 1010.63 1010.16 1009.77
997.80 998.53 999.36 1000.30 1001.30 1002.35 1003.42 1004.49 1005.53 1006.55 1007.52 1008.44 1009.30 1010.10 1010.84 1011.53 1012.18 1012.78 1013.33 1013.83 1014.28 1014.66 1014.96 1015.16 1015.26 1015.24 1015.10 1014.83 1014.44 1013.95 1013.38 1012.75 1012.10 1011.45 1010.84 1010.28 1009.78 1009.38
997.24 997.92 998.72 999.63 1000.63 1001.68 1002.76 1003.85 1004.93 1005.97 1006.97 1007.91 1008.80 1009.63 1010.39 1011.11 1011.78 1012.40 1012.97 1013.50 1013.96 1014.36 1014.67 1014.89 1015.00 1014.98 1014.84 1014.57 1014.17 1013.67 1013.09 1012.45 1011.78 1011.12 1010.48 1009.90 1009.38 1008.95
996.66 997.29 998.05 998.93 999.91 1000.96 1002.05 1003.16 1004.26 1005.33 1006.36 1007.34 1008.26 1009.12 1009.92 1010.67 1011.37 1012.03 1012.63 1013.18 1013.68 1014.10 1014.43 1014.67 1014.79 1014.78 1014.64 1014.37 1013.97 1013.47 1012.88 1012.23 1011.55 1010.86 1010.20 1009.59 1009.05 1008.58
996.08 996.66 997.38 998.23 999.19 1000.24 1001.33 1002.45 1003.56 1004.66 1005.72 1006.74 1007.70 1008.60 1009.44 1010.23 1010.97 1011.67 1012.31 1012.90 1013.43 1013.88 1014.25 1014.51 1014.65 1014.66 1014.54 1014.29 1013.90 1013.40 1012.82 1012.17 1011.48 1010.78 1010.10 1009.46 1008.88 1008.37
995.54 996.08 996.77 997.59 998.52 999.55 1000.64 1001.76 1002.89 1004.01 1005.09 1006.14 1007.13 1008.07 1008.95 1009.79 1010.57 1011.31 1012.01 1012.64 1013.22 1013.71 1014.12 1014.42 1014.59 1014.64 1014.55 1014.33 1013.97 1013.50 1012.93 1012.30 1011.62 1010.92 1010.22 1009.56 1008.94 1008.39
Thickness
5638 5636 5633 5630 5627 5624 5621 5615 5607 5600 5598 5596 5590 5586 5581 5574 5567 5560 5553 5546 5539 5533 5526 5519 5511 5504 5498 5492 5485 5479 5473 5466 5460 5453 5448 5442 5437 5432
5635 5632 5630 5627 5623 5619 5615 5611 5606 5599 5593 5591 5585 5580 5574 5567 5561 5554 5547 5540 5533 5526 5519 5512 5504 5497 5491 5484 5478 5471 5464 5457 5450 5444 5438 5432 5426 5421
5632 5629 5626 5623 5618 5614 5610 5605 5600 5595 5588 5583 5579 5573 5567 5560 5553 5547 5540 5533 5526 5519 5512 5505 5498 5491 5484 5477 5470 5463 5455 5448 5441 5435 5428 5422 5415 5411
5629 5626 5622 5618 5614 5609 5605 5600 5595 5590 5583 5577 5571 5564 5559 5553 5546 5539 5532 5526 5519 5512 5505 5498 5491 5484 5477 5470 5462 5454 5447 5439 5432 5426 5419 5413 5407 5401
5627 5623 5619 5614 5610 5605 5601 5595 5590 5585 5578 5571 5564 5557 5551 5545 5538 5531 5525 5518 5512 5505 5498 5491 5484 5478 5470 5463 5455 5447 5439 5431 5425 5418 5410 5403 5397 5392
5623 5620 5616 5612 5608 5602 5597 5591 5585 5578 5571 5564 5557 5550 5543 5537 5530 5523 5516 5510 5504 5497 5490 5484 5477 5470 5463 5456 5448 5440 5432 5424 5417 5410 5402 5395 5389 5383
5617 5615 5612 5609 5604 5598 5593 5586 5579 5572 5564 5557 5550 5543 5536 5529 5523 5516 5509 5502 5495 5489 5481 5476 5470 5464 5456 5448 5440 5433 5425 5417 5410 5402 5395 5388 5381 5375
5613 5609 5606 5602 5597 5593 5588 5582 5576 5568 5560 5553 5546 5539 5533 5525 5517 5509 5501 5493 5486 5482 5473 5467 5462 5455 5448 5441 5433 5426 5419 5411 5403 5395 5388 5380 5374 5368
5609 5605 5600 5597 5592 5586 5581 5575 5569 5564 5559 5551 5543 5536 5528 5521 5512 5503 5494 5486 5479 5473 5465 5458 5453 5447 5441 5434 5427 5419 5411 5404 5396 5389 5381 5374 5367 5360
5604 5601 5596 5591 5586 5580 5573 5566 5561 5556 5550 5545 5539 5532 5524 5516 5508 5499 5489 5479 5471 5464 5458 5449 5444 5438 5434 5427 5419 5412 5404 5396 5389 5381 5374 5367 5360 5354
5596 5593 5590 5585 5580 5573 5566 5559 5552 5546 5542 5536 5531 5524 5517 5509 5501 5490 5480 5470 5462 5456 5449 5441 5435 5429 5424 5419 5411 5404 5396 5388 5381 5374 5367 5360 5354 5348
5587 5585 5583 5580 5573 5566 5561 5554 5547 5540 5533 5526 5520 5513 5507 5500 5493 5485 5476 5465 5456 5448 5442 5434 5427 5420 5414 5410 5403 5396 5388 5381 5373 5366 5360 5353 5347 5341
5580 5578 5576 5571 5566 5560 5555 5550 5545 5536 5527 5519 5511 5503 5497 5490 5484 5477 5470 5462 5452 5443 5436 5428 5419 5411 5403 5398 5395 5389 5381 5373 5366 5360 5352 5346 5340 5335
5575 5572 5569 5563 5558 5553 5547 5543 5536 5528 5520 5511 5504 5496 5489 5483 5476 5469 5462 5455 5447 5439 5430 5422 5413 5404 5396 5389 5384 5380 5374 5367 5360 5353 5346 5340 5334 5329
5568 5565 5561 5554 5549 5544 5540 5535 5527 5520 5514 5506 5499 5491 5484 5477 5469 5461 5453 5446 5438 5431 5424 5416 5407 5398 5390 5382 5376 5371 5366 5360 5353 5346 5340 5334 5328 5323
5556 5552 5548 5543 5539 5535 5530 5524 5519 5515 5509 5502 5493 5484 5476 5469 5461 5453 5445 5437 5429 5422 5415 5408 5401 5393 5384 5377 5370 5364 5357 5351 5346 5339 5333 5328 5324 5318
5544 5539 5535 5532 5528 5524 5520 5515 5510 5505 5499 5492 5485 5476 5469 5462 5453 5446 5438 5430 5422 5414 5406 5400 5393 5386 5380 5372 5365 5358 5351 5344 5339 5333 5327 5322 5319 5314
5534 5531 5528 5525 5522 5519 5513 5506 5502 5497 5492 5485 5477 5470 5463 5455 5447 5438 5431 5423 5415 5408 5400 5393 5386 5379 5371 5367 5361 5353 5345 5338 5332 5326 5320 5315 5313 5310
5525 5524 5522 5519 5516 5512 5507 5501 5495 5490 5484 5477 5470 5463 5456 5448 5440 5432 5424 5416 5408 5401 5393 5386 5379 5372 5364 5357 5353 5348 5340 5333 5326 5320 5314 5308 5304 5304
5518 5518 5516 5513 5509 5504 5499 5494 5488 5482 5476 5470 5463 5457 5449 5442 5434 5425 5418 5410 5402 5394 5386 5379 5373 5366 5358 5350 5344 5339 5334 5326 5320 5314 5309 5304 5300 5299
5511 5510 5508 5505 5501 5496 5492 5487 5482 5476 5470 5463 5457 5450 5443 5435 5427 5419 5411 5405 5396 5387 5380 5373 5367 5360 5352 5344 5336 5330 5326 5320 5314 5308 5303 5298 5295 5292
5503 5502 5500 5497 5493 5489 5484 5479 5474 5469 5462 5456 5450 5443 5436 5429 5420 5412 5404 5396 5388 5381 5373 5366 5359 5352 5344 5336 5328 5322 5317 5313 5308 5303 5298 5292 5287 5285
5495 5494 5491 5489 5486 5482 5477 5473 5468 5462 5456 5450 5444 5436 5429 5421 5413 5405 5397 5389 5381 5373 5365 5357 5350 5343 5336 5329 5321 5314 5308 5303 5299 5294 5291 5288 5284 5282